Flag for U.S.A. Weather past 2 weeks in Neenah, Wisconsin, U.S.A.

Now
70 °F

Sunny.


Feels Like: 70 °F
Forecast: 51 / 72 °F
Wind: 7 mph from Southeast

Location: Appleton / Outagamie

Current Time: Jul 2, 2015 at 2:16:01 PM

Latest Report: Jul 2, 2015 at 1:45 PM


Visibility: 10 mi

Pressure: 30.05 "Hg

Humidity: 40%

Dew point: 45 °F

Location of NeenahLocation

Historic Weather in Neenah — Graph

°F

Neenah temperature yesterday

Maximum temperature yesterday: 68 °F (at 4:45 PM)
Minimum temperature yesterday: 46 °F (at 3:35 AM)
Average temperature yesterday: 55 °F

Past Weeks' High & Low Weather Summary

 TemperatureHumidityPressure
High81 °F (Jun 22, 4:45 PM)100% (Jun 21, 12:55 AM)30.20 "Hg (Jun 21, 12:55 AM)
Low46 °F (Jul 1, 3:35 AM)27% (Jun 27, 3:45 PM)29.64 "Hg (Jun 22, 2:45 PM)
Average64 °F69%29.95 "Hg
* Reported Jun 17 12:45 PM — Jul 2 12:45 PM, Neenah, Weather by CustomWeather, © 2015

Note: Actual official high and low records may vary slightly from our data, if they occured in-between our weather recording intervals... More about our weather records

Advertising

Neenah weather history for previous 24 hours

 ConditionsComfort  
Time TempWeatherWind HumidityBarometerVisibility
12:45 PM
Thu, Jul 2
68 °FSunny.7 mph40%30.06 "Hg10 mi
11:45 AM66 °FSunny.6 mph46%30.08 "Hg10 mi
10:45 AM64 °FSunny.8 mph49%30.08 "Hg10 mi
9:45 AM61 °FSunny.7 mph55%30.06 "Hg10 mi
8:45 AM57 °FSunny.7 mph63%30.09 "Hg10 mi
7:45 AM55 °FSunny.6 mph67%30.09 "Hg10 mi
6:45 AM54 °FSunny.5 mph72%30.07 "Hg10 mi
5:45 AM50 °FClear.6 mph82%30.07 "Hg10 mi
10:45 PM
Wed, Jul 1
57 °FClear.5 mph72%30.04 "Hg10 mi
9:45 PM63 °FClear.3 mph64%30.02 "Hg10 mi
8:45 PM61 °FScattered clouds.No wind68%30.00 "Hg10 mi
7:45 PM66 °FScattered clouds.No wind49%29.99 "Hg10 mi
5:45 PM66 °FScattered clouds.5 mph56%29.98 "Hg10 mi
4:45 PM68 °FScattered clouds.8 mph49%29.98 "Hg10 mi
3:45 PM66 °FScattered clouds.12 mph52%29.99 "Hg10 mi
2:45 PM66 °FScattered clouds.7 mph56%30.00 "Hg10 mi
Weather by CustomWeather, © 2015

See weather overviewHow to use our weather pages